sat.trackr.live / text

‹ back to catalog

STARLINK-36166

NORAD 67084 · 2025-298K

PAYLOAD ACTIVE UNKNOWN

§ Identity

Operator
Country
US
Launch date
2025-12-14
Launch site
AFWTR
Launch vehicle
Mass (kg)
RCS (m²)

Purposes: comms

External: N2YO · Heavens-Above · Gunter

§ Orbital elements

Epoch: 2026-05-25T03:07:15.362688Z

Period
96.11 min
Inclination
70.0012°
Eccentricity
0.0003310
Mean motion
14.98337583 rev/d
Perigee alt
569.7 km
Apogee alt
574.3 km
Semi-major
6,950.2 km
B*
3.2191e-4
RAAN
181.8689°
Arg perigee
268.4071°
Mean anomaly
91.6709°
Rev number
2,466

§ Raw data

STARLINK-361661 67084U 25298K   26145.13003892  .00003751  00000+0  32191-3 0  99992 67084  70.0012 181.8689 0003310 268.4071  91.6709 14.98337583 24664

JSON: /api/v1/satellites/67084 · /tle

For live sub-satellite position, see the globe view (requires WebGL).

§ Visibility from observer

Set your observer location to see the next 7 days of passes ≥ 10°. The values pass through the URL so the page stays shareable.

No JS? Fill the form by hand. The geolocation button needs JavaScript.